Time,TemperatureF,DewpointF,PressureIn,WindDirection,WindDirectionDegrees,WindSpeedMPH,WindSpeedGustMPH,Humidity,HourlyPrecipIn,Conditions,Clouds,dailyrainin,SoftwareType,DateUTC
2013-01-15 00:00:00,41.2,32.0,30.24,West,266,0.0,0.0,38,0.00,,,-99.99,wx200d/1.3,2013-01-15 08:00:00,
2013-01-15 00:15:00,41.0,32.0,30.24,West,266,0.0,0.0,38,0.00,,,-99.99,wx200d/1.3,2013-01-15 08:15:00,
2013-01-15 00:30:00,41.0,32.0,30.27,West,266,0.0,0.0,38,0.00,,,-99.99,wx200d/1.3,2013-01-15 08:30:00,
2013-01-15 00:45:00,41.2,32.0,30.27,West,266,0.0,0.0,39,0.00,,,-99.99,wx200d/1.3,2013-01-15 08:45:00,
2013-01-15 01:00:00,41.4,32.0,30.27,West,266,0.0,0.0,39,0.00,,,-99.99,wx200d/1.3,2013-01-15 09:00:00,
2013-01-15 01:15:00,41.0,32.0,30.27,West,266,0.0,0.0,39,0.00,,,-99.99,wx200d/1.3,2013-01-15 09:15:00,
2013-01-15 01:30:00,41.0,32.0,30.24,West,266,0.0,0.0,39,0.00,,,-99.99,wx200d/1.3,2013-01-15 09:30:00,
2013-01-15 01:45:00,41.0,32.0,30.24,West,266,0.0,0.0,39,0.00,,,-99.99,wx200d/1.3,2013-01-15 09:45:00,
2013-01-15 02:00:00,40.6,32.0,30.27,West,266,0.0,0.0,40,0.00,,,-99.99,wx200d/1.3,2013-01-15 10:00:00,
2013-01-15 02:15:00,40.6,32.0,30.27,West,266,0.0,0.0,41,0.00,,,-99.99,wx200d/1.3,2013-01-15 10:15:00,
2013-01-15 02:30:00,40.5,32.0,30.27,West,266,0.0,0.0,41,0.00,,,-99.99,wx200d/1.3,2013-01-15 10:30:00,
2013-01-15 02:45:00,40.5,32.0,30.27,West,266,0.0,0.0,44,0.00,,,-99.99,wx200d/1.3,2013-01-15 10:45:00,
2013-01-15 03:00:00,40.3,32.0,30.27,West,266,0.0,0.0,45,0.00,,,-99.99,wx200d/1.3,2013-01-15 11:00:00,
2013-01-15 03:15:00,40.3,32.0,30.27,West,266,0.0,0.0,46,0.00,,,-99.99,wx200d/1.3,2013-01-15 11:15:00,
2013-01-15 03:30:00,39.9,32.0,30.27,West,266,0.0,0.0,49,0.00,,,-99.99,wx200d/1.3,2013-01-15 11:30:00,
2013-01-15 03:45:00,39.4,32.0,30.27,West,266,0.0,0.0,49,0.00,,,-99.99,wx200d/1.3,2013-01-15 11:45:00,
2013-01-15 04:00:00,39.2,32.0,30.27,West,266,0.0,0.0,49,0.00,,,-99.99,wx200d/1.3,2013-01-15 12:00:00,
2013-01-15 04:15:00,39.2,32.0,30.27,West,266,0.0,0.0,49,0.00,,,-99.99,wx200d/1.3,2013-01-15 12:15:00,
2013-01-15 04:30:00,39.0,32.0,30.27,West,266,0.0,0.0,50,0.00,,,-99.99,wx200d/1.3,2013-01-15 12:30:00,
2013-01-15 04:45:00,38.8,32.0,30.27,West,266,0.0,0.0,50,0.00,,,-99.99,wx200d/1.3,2013-01-15 12:45:00,
2013-01-15 05:00:00,38.7,32.0,30.27,West,266,0.0,0.0,51,0.00,,,-99.99,wx200d/1.3,2013-01-15 13:00:00,
2013-01-15 05:15:00,38.3,32.0,30.27,West,266,0.0,0.0,52,0.00,,,-99.99,wx200d/1.3,2013-01-15 13:15:00,
2013-01-15 05:30:00,38.5,32.0,30.27,West,266,0.0,0.0,52,0.00,,,-99.99,wx200d/1.3,2013-01-15 13:30:00,
2013-01-15 05:45:00,38.3,32.0,30.27,West,266,0.0,0.0,52,0.00,,,-99.99,wx200d/1.3,2013-01-15 13:45:00,
2013-01-15 06:00:00,38.1,32.0,30.27,West,266,0.0,0.0,51,0.00,,,-99.99,wx200d/1.3,2013-01-15 14:00:00,
2013-01-15 06:15:00,38.1,32.0,30.30,West,266,0.0,0.0,51,0.00,,,-99.99,wx200d/1.3,2013-01-15 14:15:00,
2013-01-15 06:30:00,38.1,32.0,30.27,West,266,0.0,0.0,50,0.00,,,-99.99,wx200d/1.3,2013-01-15 14:30:00,
2013-01-15 06:45:00,38.3,32.0,30.30,West,266,0.0,0.0,50,0.00,,,-99.99,wx200d/1.3,2013-01-15 14:45:00,
2013-01-15 07:00:00,38.5,32.0,30.30,West,266,0.0,0.0,51,0.00,,,-99.99,wx200d/1.3,2013-01-15 15:00:00,
2013-01-15 07:15:00,38.5,32.0,30.30,West,266,0.0,0.0,51,0.00,,,-99.99,wx200d/1.3,2013-01-15 15:15:00,
2013-01-15 07:30:00,38.8,32.0,30.30,West,266,0.0,0.0,52,0.00,,,-99.99,wx200d/1.3,2013-01-15 15:30:00,
2013-01-15 07:45:00,39.2,32.0,30.30,West,266,0.0,0.0,52,0.00,,,-99.99,wx200d/1.3,2013-01-15 15:45:00,
2013-01-15 08:00:00,39.9,32.0,30.33,West,266,0.0,0.0,52,0.00,,,-99.99,wx200d/1.3,2013-01-15 16:00:00,
2013-01-15 08:15:00,40.6,32.0,30.33,West,266,0.0,0.0,52,0.00,,,-99.99,wx200d/1.3,2013-01-15 16:15:00,
2013-01-15 08:30:00,41.5,32.0,30.33,West,266,0.0,0.0,51,0.00,,,-99.99,wx200d/1.3,2013-01-15 16:30:00,
2013-01-15 08:45:00,42.3,32.0,30.33,West,266,0.0,0.0,49,0.00,,,-99.99,wx200d/1.3,2013-01-15 16:45:00,
2013-01-15 09:00:00,43.2,32.0,30.33,West,266,0.0,0.0,43,0.00,,,-99.99,wx200d/1.3,2013-01-15 17:00:00,
2013-01-15 09:15:00,43.7,32.0,30.33,West,266,0.0,0.0,42,0.00,,,-99.99,wx200d/1.3,2013-01-15 17:15:00,
2013-01-15 09:30:00,45.0,32.0,30.33,West,266,0.0,0.0,40,0.00,,,-99.99,wx200d/1.3,2013-01-15 17:30:00,
2013-01-15 09:45:00,45.9,32.0,30.33,West,266,0.0,0.0,39,0.00,,,-99.99,wx200d/1.3,2013-01-15 17:45:00,
2013-01-15 10:00:00,46.2,32.0,30.33,East,93,0.0,4.9,38,0.00,,,-99.99,wx200d/1.3,2013-01-15 18:00:00,
2013-01-15 10:15:00,46.6,32.0,30.36,East,93,0.0,0.0,33,0.00,,,-99.99,wx200d/1.3,2013-01-15 18:15:00,
2013-01-15 10:30:00,47.3,32.0,30.33,East,93,0.0,0.0,31,0.00,,,-99.99,wx200d/1.3,2013-01-15 18:30:00,
2013-01-15 10:45:00,48.0,32.0,30.33,WSW,253,0.0,0.0,29,0.00,,,-99.99,wx200d/1.3,2013-01-15 18:45:00,
2013-01-15 11:00:00,48.9,32.0,30.33,ESE,110,0.0,0.0,28,0.00,,,-99.99,wx200d/1.3,2013-01-15 19:00:00,
2013-01-15 11:15:00,49.8,32.0,30.33,East,99,0.0,0.0,27,0.00,,,-99.99,wx200d/1.3,2013-01-15 19:15:00,
2013-01-15 11:30:00,50.5,32.0,30.33,East,87,0.0,0.0,24,0.00,,,-99.99,wx200d/1.3,2013-01-15 19:30:00,
2013-01-15 11:45:00,51.4,32.0,30.33,East,85,0.0,0.0,24,0.00,,,-99.99,wx200d/1.3,2013-01-15 19:45:00,
2013-01-15 12:00:00,52.3,32.0,30.33,East,85,0.0,0.0,23,0.00,,,-99.99,wx200d/1.3,2013-01-15 20:00:00,
2013-01-15 12:15:00,52.2,32.0,30.33,East,85,0.0,2.2,21,0.00,,,-99.99,wx200d/1.3,2013-01-15 20:15:00,
2013-01-15 12:30:00,52.2,32.0,30.30,ENE,77,0.0,0.0,21,0.00,,,-99.99,wx200d/1.3,2013-01-15 20:30:00,
2013-01-15 12:45:00,51.4,32.0,30.30,NNE,30,2.7,2.7,21,0.00,,,-99.99,wx200d/1.3,2013-01-15 20:45:00,
2013-01-15 13:00:00,51.3,32.0,30.30,West,262,0.0,4.0,21,0.00,,,-99.99,wx200d/1.3,2013-01-15 21:00:00,
2013-01-15 13:15:00,52.0,32.0,30.30,East,81,3.1,3.6,18,0.00,,,-99.99,wx200d/1.3,2013-01-15 21:15:00,
2013-01-15 13:30:00,52.2,32.0,30.30,East,85,2.7,3.1,18,0.00,,,-99.99,wx200d/1.3,2013-01-15 21:30:00,
2013-01-15 13:45:00,52.7,32.0,30.30,ENE,76,0.0,0.0,18,0.00,,,-99.99,wx200d/1.3,2013-01-15 21:45:00,
2013-01-15 14:00:00,53.1,32.0,30.30,ENE,68,0.0,2.7,18,0.00,,,-99.99,wx200d/1.3,2013-01-15 22:00:00,
2013-01-15 14:15:00,53.4,32.0,30.27,WNW,286,4.0,4.0,18,0.00,,,-99.99,wx200d/1.3,2013-01-15 22:15:00,
2013-01-15 14:30:00,53.4,32.0,30.27,East,88,2.2,0.0,18,0.00,,,-99.99,wx200d/1.3,2013-01-15 22:30:00,
2013-01-15 14:45:00,53.2,32.0,30.27,ENE,65,4.9,4.9,18,0.00,,,-99.99,wx200d/1.3,2013-01-15 22:45:00,
2013-01-15 15:00:00,53.2,32.0,30.27,ENE,76,3.1,3.6,18,0.00,,,-99.99,wx200d/1.3,2013-01-15 23:00:00,
2013-01-15 15:15:00,53.1,32.0,30.27,ENE,59,3.1,3.1,18,0.00,,,-99.99,wx200d/1.3,2013-01-15 23:15:00,
2013-01-15 15:30:00,52.9,32.0,30.27,NW,322,0.0,2.7,18,0.00,,,-99.99,wx200d/1.3,2013-01-15 23:30:00,
2013-01-15 15:45:00,52.7,32.0,30.27,WNW,286,3.6,4.0,18,0.00,,,-99.99,wx200d/1.3,2013-01-15 23:45:00,
2013-01-15 16:00:00,52.2,32.0,30.27,East,91,2.7,2.7,18,0.00,,,-99.99,wx200d/1.3,2013-01-16 00:00:00,
2013-01-15 16:15:00,51.8,32.0,30.30,West,280,2.7,4.0,18,0.00,,,-99.99,wx200d/1.3,2013-01-16 00:15:00,
2013-01-15 16:30:00,51.3,32.0,30.30,West,271,2.2,3.6,19,0.00,,,-99.99,wx200d/1.3,2013-01-16 00:30:00,
2013-01-15 16:45:00,50.7,32.0,30.30,West,278,3.1,3.6,19,0.00,,,-99.99,wx200d/1.3,2013-01-16 00:45:00,
2013-01-15 17:00:00,50.2,32.0,30.30,NW,308,0.0,0.0,19,0.00,,,-99.99,wx200d/1.3,2013-01-16 01:00:00,
2013-01-15 17:15:00,49.6,32.0,30.30,West,274,0.0,3.1,19,0.00,,,-99.99,wx200d/1.3,2013-01-16 01:15:00,
2013-01-15 17:30:00,49.1,32.0,30.30,NW,323,2.7,0.0,19,0.00,,,-99.99,wx200d/1.3,2013-01-16 01:30:00,
2013-01-15 17:45:00,48.7,32.0,30.30,West,264,2.2,2.7,19,0.00,,,-99.99,wx200d/1.3,2013-01-16 01:45:00,
2013-01-15 18:00:00,48.2,32.0,30.30,East,80,2.2,5.4,21,0.00,,,-99.99,wx200d/1.3,2013-01-16 02:00:00,
2013-01-15 18:15:00,47.7,32.0,30.30,West,269,0.0,0.0,27,0.00,,,-99.99,wx200d/1.3,2013-01-16 02:15:00,
2013-01-15 18:30:00,47.3,32.0,30.30,West,271,0.0,0.0,27,0.00,,,-99.99,wx200d/1.3,2013-01-16 02:30:00,
2013-01-15 18:45:00,46.8,32.0,30.30,East,93,2.2,0.0,27,0.00,,,-99.99,wx200d/1.3,2013-01-16 02:45:00,
2013-01-15 19:00:00,46.4,32.0,30.30,West,263,0.0,0.0,27,0.00,,,-99.99,wx200d/1.3,2013-01-16 03:00:00,
2013-01-15 19:15:00,46.2,32.0,30.30,West,271,0.0,0.0,27,0.00,,,-99.99,wx200d/1.3,2013-01-16 03:15:00,
2013-01-15 19:30:00,46.2,32.0,30.27,West,265,0.0,0.0,25,0.00,,,-99.99,wx200d/1.3,2013-01-16 03:30:00,
2013-01-15 19:45:00,46.6,32.0,30.30,West,273,0.0,0.0,24,0.00,,,-99.99,wx200d/1.3,2013-01-16 03:45:00,
2013-01-15 20:00:00,46.2,32.0,30.30,West,263,0.0,0.0,25,0.00,,,-99.99,wx200d/1.3,2013-01-16 04:00:00,
2013-01-15 20:15:00,45.9,32.0,30.27,West,268,0.0,0.0,25,0.00,,,-99.99,wx200d/1.3,2013-01-16 04:15:00,
2013-01-15 20:30:00,45.7,32.0,30.27,West,265,0.0,0.0,25,0.00,,,-99.99,wx200d/1.3,2013-01-16 04:30:00,
2013-01-15 20:45:00,45.9,32.0,30.27,West,271,0.0,2.2,25,0.00,,,-99.99,wx200d/1.3,2013-01-16 04:45:00,
2013-01-15 21:00:00,45.9,32.0,30.27,WSW,246,0.0,0.0,25,0.00,,,-99.99,wx200d/1.3,2013-01-16 05:00:00,
2013-01-15 21:15:00,45.7,32.0,30.27,West,272,0.0,3.1,25,0.00,,,-99.99,wx200d/1.3,2013-01-16 05:15:00,
2013-01-15 21:30:00,45.5,32.0,30.27,West,269,0.0,0.0,27,0.00,,,-99.99,wx200d/1.3,2013-01-16 05:30:00,
2013-01-15 21:45:00,45.0,32.0,30.27,East,96,0.0,3.1,27,0.00,,,-99.99,wx200d/1.3,2013-01-16 05:45:00,
2013-01-15 22:00:00,44.8,32.0,30.27,West,262,0.0,0.0,28,0.00,,,-99.99,wx200d/1.3,2013-01-16 06:00:00,
2013-01-15 22:15:00,44.8,32.0,30.27,West,274,0.0,2.2,29,0.00,,,-99.99,wx200d/1.3,2013-01-16 06:15:00,
2013-01-15 22:30:00,44.4,32.0,30.27,West,266,0.0,0.0,31,0.00,,,-99.99,wx200d/1.3,2013-01-16 06:30:00,
2013-01-15 22:45:00,43.9,32.0,30.27,East,89,2.2,3.1,32,0.00,,,-99.99,wx200d/1.3,2013-01-16 06:45:00,
2013-01-15 23:00:00,44.1,32.0,30.27,WSW,239,0.0,0.0,33,0.00,,,-99.99,wx200d/1.3,2013-01-16 07:00:00,
2013-01-15 23:15:00,43.9,32.0,30.27,West,263,0.0,0.0,34,0.00,,,-99.99,wx200d/1.3,2013-01-16 07:15:00,
2013-01-15 23:30:00,43.7,32.0,30.27,NNE,28,2.2,2.2,34,0.00,,,-99.99,wx200d/1.3,2013-01-16 07:30:00,
2013-01-15 23:45:00,43.7,32.0,30.27,West,263,0.0,0.0,34,0.00,,,-99.99,wx200d/1.3,2013-01-16 07:45:00,